Theta_e
306 304 303 309 311 309 307 306 304 306 321 324 320 321 326 333 334 334 333 334 335 336 340 343 345 346 346 346 347 350 351 355 355 353 351 352 353 356 362 360 360 359 357 361
303 302 309 312 310 308 307 306 304 306 312 319 309 311 324 330 333 335 334 334 336 337 338 340 343 344 345 345 346 350 351 355 355 354 356 357 357 358 361 359 360 359 360 364
301 306 311 309 309 307 307 306 304 303 305 319 319 315 322 327 333 336 337 338 338 337 337 339 341 342 344 345 346 349 352 354 356 357 357 356 357 357 356 356 357 362 360 361
306 311 309 308 307 309 306 308 306 305 303 300 315 300 316 323 325 331 334 336 336 338 339 340 340 340 342 345 348 350 352 353 355 358 356 357 352 357 353 357 358 359 363 362
305 307 308 307 308 310 306 309 307 305 304 301 307 302 306 323 319 320 330 335 337 337 339 339 339 341 343 345 346 349 352 353 355 356 358 355 355 354 355 356 360 361 364 364
301 304 305 307 307 309 309 304 302 302 302 297 299 300 305 310 314 319 324 328 336 338 336 340 342 343 342 345 346 347 351 353 354 355 355 357 357 356 353 355 354 356 363 361
298 298 301 302 302 305 306 303 296 295 294 295 298 303 308 316 319 320 322 326 330 334 339 339 340 340 342 343 345 346 350 352 353 353 354 354 356 358 358 359 355 356 355 357
295 292 298 301 299 300 303 303 297 291 292 295 298 300 307 317 321 323 325 326 329 331 333 340 340 341 340 343 345 346 349 351 351 351 355 357 356 352 354 358 355 355 355 357
294 293 299 300 301 300 299 299 300 297 295 296 298 304 312 317 318 320 320 322 323 332 331 337 341 341 341 343 346 347 350 353 352 351 355 354 355 354 354 359 360 356 361 358
296 292 296 298 300 301 300 299 297 299 292 292 298 301 303 310 313 316 316 319 323 327 334 334 341 341 342 344 346 348 349 351 353 351 353 351 352 353 354 356 358 358 360 361
297 296 294 298 294 293 298 298 297 299 296 294 293 300 311 311 313 312 313 316 321 325 327 334 339 343 342 343 345 346 347 348 349 351 353 353 351 351 353 352 355 358 360 362
296 295 291 292 296 297 297 294 294 297 295 296 301 299 314 313 313 316 313 314 317 322 325 327 331 332 340 342 343 345 345 346 348 351 353 351 352 352 351 351 352 356 358 361
295 291 289 290 294 296 294 294 295 294 296 296 296 298 311 311 310 311 313 315 316 318 321 323 324 325 326 331 339 343 345 345 346 349 347 350 350 350 351 352 353 353 355 358
298 291 289 290 291 293 291 291 293 294 295 294 297 301 305 305 305 307 311 315 316 318 317 319 322 322 322 324 327 332 344 347 348 348 346 348 350 352 351 354 354 353 354 354
297 290 291 291 292 292 290 290 291 293 294 294 300 300 302 303 304 305 307 311 313 316 316 317 316 320 323 322 322 326 329 339 349 350 348 349 352 353 353 353 354 355 354 353
295 291 292 289 291 292 291 294 294 295 297 300 303 300 304 306 306 307 308 309 308 310 315 317 317 316 318 323 322 323 325 329 341 346 348 351 352 351 351 351 352 352 353 354
294 292 290 286 289 290 287 293 296 297 299 301 300 300 304 302 302 304 305 306 307 308 310 312 316 317 317 319 324 323 323 325 329 329 336 349 351 351 351 351 350 351 351 353
293 292 292 287 288 281 291 300 300 298 299 302 301 302 302 302 304 304 306 306 306 307 307 309 310 313 318 319 321 325 324 324 323 323 325 328 334 349 352 352 351 351 350 351
295 294 289 287 286 287 292 297 298 297 295 301 301 301 302 302 305 304 305 305 304 306 308 309 310 310 313 318 321 323 325 321 322 321 322 325 328 331 336 349 350 351 349 350
294 296 293 288 285 283 291 297 301 301 291 301 302 300 299 299 297 303 303 302 303 305 306 308 309 310 310 313 317 320 322 321 320 320 322 325 327 328 331 335 339 346 350 347
291 293 290 289 287 290 296 297 300 289 293 301 300 298 298 296 299 300 301 302 303 303 304 306 306 307 309 311 313 317 319 320 322 321 322 323 326 326 330 334 337 339 344 349
290 289 289 289 287 284 299 297 294 298 301 300 298 297 296 297 298 299 300 300 301 301 302 303 303 304 306 309 310 312 315 321 323 319 320 322 323 326 330 331 330 333 341 342
289 293 292 292 292 296 300 297 300 300 299 297 298 298 298 297 298 299 300 301 301 302 302 303 302 303 305 308 309 309 313 318 321 321 318 319 321 323 327 327 327 330 335 341
294 294 294 291 295 296 299 299 300 300 298 299 299 299 299 298 300 300 300 301 301 302 302 303 302 302 303 306 307 308 310 314 318 320 320 317 318 319 320 323 327 330 331 336
295 295 294 293 295 295 297 300 301 300 299 299 299 299 299 300 300 301 301 301 302 302 302 303 302 302 302 305 305 307 309 312 315 318 319 319 316 318 318 320 321 324 329 330
296 295 294 294 299 299 297 301 302 300 299 299 299 299 301 301 301 302 302 302 302 301 302 302 303 303 303 304 305 307 309 311 313 315 317 317 316 316 317 319 319 315 311 310
Wind_Speed
7 7 11 11 6 3 7 6 5 2 4 6 6 6 7 11 13 15 18 18 18 18 17 16 14 12 11 11 12 12 12 11 9 7 6 5 6 5 4 3 5 4 5 5
7 10 9 7 5 7 4 5 4 2 3 7 3 3 4 10 11 14 17 17 18 17 17 16 15 13 14 14 13 12 12 11 10 7 5 3 4 4 2 5 5 5 6 5
11 9 10 7 9 8 5 5 4 3 1 1 1 1 4 1 4 9 12 15 17 17 18 17 16 15 15 14 15 14 13 11 10 8 5 4 5 4 4 5 4 5 6 4
9 7 13 9 9 7 9 7 4 3 3 3 3 4 7 7 3 2 8 12 15 17 17 18 18 17 16 17 15 14 13 13 10 10 8 8 7 5 4 5 4 4 5 5
5 11 11 9 7 7 3 5 6 3 4 3 5 3 7 5 8 7 7 8 13 14 17 19 19 19 17 16 15 15 13 13 12 11 10 8 7 5 4 5 7 5 4 4
4 3 2 1 3 10 11 6 5 3 3 6 3 3 6 7 9 11 9 6 11 15 14 18 18 17 16 16 15 15 15 14 14 13 13 12 10 8 6 7 6 6 5 5
4 4 2 5 6 5 7 8 6 7 6 5 3 5 6 7 11 10 12 12 11 10 18 19 19 19 18 17 17 16 16 15 15 15 14 14 12 10 10 8 7 7 6 5
4 7 5 10 4 1 10 9 5 11 9 7 0 8 6 7 9 12 12 14 13 12 15 20 20 21 20 20 19 17 16 16 16 16 15 13 13 9 9 9 6 6 6 6
4 5 1 7 7 4 6 6 2 6 1 9 5 7 4 11 14 16 16 16 16 17 9 17 19 19 19 19 20 19 17 16 16 18 13 13 12 12 10 10 8 7 5 5
3 6 6 5 2 9 4 4 6 2 9 10 5 4 6 13 16 18 19 20 19 19 13 7 12 15 15 15 16 18 18 17 17 18 15 14 14 13 12 10 10 9 8 6
2 2 4 1 8 9 3 3 3 1 4 6 8 6 5 9 10 14 16 17 18 19 18 17 16 4 11 14 15 15 16 17 16 16 15 14 14 14 12 11 11 10 8 8
5 5 5 4 2 4 7 4 2 6 6 2 1 6 4 9 11 12 15 16 17 17 17 17 17 17 14 3 11 13 15 16 16 12 11 14 13 13 13 12 12 11 11 9
2 3 5 3 4 2 3 4 3 1 1 4 6 7 7 10 12 14 14 15 16 17 18 16 18 16 15 13 12 7 10 14 12 10 10 10 13 13 14 14 12 11 12 12
4 4 4 2 5 3 2 2 4 3 4 8 2 14 7 11 11 12 13 14 15 16 16 14 14 14 13 13 12 12 10 5 9 11 12 11 13 14 13 13 13 13 13 12
4 5 4 6 5 1 1 2 1 0 4 3 14 11 9 9 10 9 10 13 15 16 18 18 15 13 13 13 12 11 11 10 6 8 11 13 13 13 13 12 13 13 13 13
3 6 4 3 3 1 1 1 5 3 4 8 15 10 8 8 7 10 11 11 13 14 15 17 16 15 14 13 12 10 9 9 9 6 10 11 11 12 13 13 14 13 14 14
2 6 5 5 3 2 4 4 4 6 4 3 10 8 8 8 8 8 8 10 11 12 14 15 15 15 13 13 12 12 10 8 8 9 11 8 11 12 12 12 13 14 14 14
6 6 1 4 5 5 6 2 3 11 7 7 11 8 6 4 1 4 7 10 10 11 13 14 13 14 14 11 14 12 10 8 7 7 8 9 11 10 12 12 13 14 13 13
3 4 4 4 7 2 4 7 8 6 5 3 7 5 2 3 3 8 5 10 11 11 11 11 12 15 14 13 13 13 12 10 8 7 6 7 8 9 9 10 13 12 12 13
4 2 3 4 4 6 4 8 5 4 7 10 5 2 2 5 4 5 9 13 13 13 12 12 14 14 13 14 14 13 13 11 11 9 9 8 6 7 9 8 8 8 9 11
3 2 7 5 5 2 6 10 7 8 5 11 6 3 2 2 4 9 10 10 10 12 14 15 14 12 12 14 14 12 11 12 10 11 10 9 5 6 8 8 7 6 7 9
7 6 4 3 5 7 13 9 7 7 8 8 6 5 3 3 4 6 8 9 10 12 14 14 14 14 14 13 13 13 12 11 11 9 13 11 9 5 6 8 7 8 8 11
5 4 3 7 2 3 9 3 6 7 9 8 8 6 4 3 5 7 9 11 11 11 11 12 14 17 15 12 11 14 13 14 12 12 8 8 11 8 7 7 8 6 8 11
6 4 3 4 6 5 8 4 5 6 4 8 6 7 6 6 7 9 10 11 12 12 13 13 15 16 18 13 14 15 15 15 14 12 12 8 7 11 9 4 6 7 7 8
1 9 6 5 5 2 8 10 7 8 6 7 7 7 8 8 10 11 12 12 13 15 16 16 15 15 19 18 17 15 15 14 14 13 11 11 6 7 11 5 3 9 8 8
8 7 6 5 7 5 3 6 9 10 10 11 9 8 9 10 11 12 13 12 13 15 17 16 17 18 18 19 19 16 14 13 13 13 11 9 8 8 9 10 5 9 14 19
Wind_Direction
156 184 191 178 188 131 128 129 107 75 160 205 241 257 202 175 187 192 192 192 191 190 191 198 200 191 191 187 186 190 191 188 178 178 183 207 218 201 195 194 171 180 199 180
155 200 186 193 187 154 146 144 116 56 48 225 277 296 337 186 192 191 188 191 197 194 185 197 198 192 196 192 197 193 200 194 195 185 183 200 183 169 158 166 170 173 199 178
180 177 164 173 166 175 152 193 161 122 5 157 231 113 356 104 186 185 190 193 198 196 195 193 197 196 203 199 201 200 200 202 202 196 167 126 123 126 152 160 171 173 181 177
193 152 167 178 178 193 201 198 181 169 226 156 297 135 54 342 230 241 185 202 201 204 204 198 198 199 200 207 203 206 200 199 206 196 194 181 186 173 180 167 159 171 162 154
139 162 170 190 195 180 201 169 193 188 184 228 172 225 15 55 56 346 224 219 221 216 212 206 205 202 205 205 204 206 202 200 201 200 211 201 195 190 171 165 158 170 165 159
78 60 58 180 148 189 145 102 82 100 184 203 110 274 45 22 351 346 345 333 223 219 216 217 209 209 208 207 206 203 202 201 197 201 209 214 201 187 180 182 178 174 169 173
106 52 58 22 150 143 193 177 149 178 191 182 95 100 48 25 12 358 344 337 319 274 216 217 209 205 211 204 206 203 201 203 198 201 207 214 215 204 197 192 196 172 180 188
152 156 17 358 18 137 183 206 204 183 188 155 183 139 81 50 26 17 10 349 338 303 257 214 208 206 201 203 203 199 195 200 200 202 208 212 213 215 217 205 200 196 198 202
140 95 33 49 31 311 143 198 20 110 73 187 120 103 183 36 26 24 16 10 5 346 253 221 214 211 205 201 201 201 202 203 199 202 201 209 216 218 218 215 194 186 204 205
102 126 23 8 294 52 6 87 172 203 167 175 124 120 62 15 14 16 14 9 12 18 22 207 214 210 208 206 206 207 208 205 202 205 201 204 213 217 216 216 215 197 189 203
29 322 63 8 38 17 13 108 58 79 333 182 157 117 21 49 27 28 24 14 15 27 36 38 24 283 214 198 201 208 213 216 211 210 211 207 206 213 217 214 224 223 204 189
21 71 62 83 54 345 35 55 347 241 172 55 353 108 45 66 43 31 40 30 24 29 35 36 41 38 33 345 217 216 223 219 219 214 209 216 215 208 213 216 215 221 224 207
35 35 129 163 205 161 46 33 47 55 286 181 197 129 89 68 44 29 42 34 33 33 35 33 33 31 26 27 18 332 234 228 219 206 202 209 218 213 217 220 216 214 226 223
89 73 337 325 63 38 182 28 30 333 230 148 56 137 95 66 52 31 30 40 38 36 34 30 30 30 25 16 16 15 360 285 233 222 220 214 215 221 220 221 220 216 215 225
47 96 92 74 70 357 341 324 349 67 88 303 143 114 96 87 80 60 40 38 33 35 33 29 21 13 16 14 12 6 8 352 320 251 238 230 229 227 226 221 225 225 222 224
22 123 139 100 10 338 178 104 137 133 90 91 125 104 118 111 91 75 58 48 35 27 19 19 18 8 9 5 1 357 353 355 331 320 259 254 242 232 228 226 225 225 226 226
81 142 179 147 5 190 224 167 131 109 76 149 169 108 144 99 74 52 58 51 32 21 13 11 6 7 0 355 352 353 351 353 5 11 349 277 251 247 237 232 229 227 226 230
138 122 85 130 162 218 71 74 157 111 89 103 115 115 103 88 103 103 55 36 24 7 359 356 355 353 354 354 352 342 348 352 9 13 1 354 357 291 252 242 238 235 232 230
307 149 130 196 206 30 184 184 166 185 168 170 150 138 111 346 257 157 57 13 351 342 340 336 340 338 337 343 348 342 345 350 1 8 351 348 338 331 333 280 254 245 242 237
86 64 234 176 218 218 96 154 143 164 222 186 189 150 22 345 247 107 357 345 338 333 330 329 330 324 327 334 338 337 333 336 348 345 333 315 344 336 313 309 314 246 229 234
148 88 217 199 241 239 151 148 155 201 109 158 164 166 196 268 330 325 324 327 325 324 323 325 318 315 317 319 324 319 324 323 331 329 318 308 336 330 308 305 307 301 295 264
179 177 192 196 228 242 150 136 208 103 133 159 174 178 203 248 286 309 322 327 327 325 324 323 316 311 311 310 308 307 307 321 323 321 324 320 322 304 301 313 316 305 270 265
211 223 193 215 244 72 175 56 117 150 156 180 187 184 201 255 298 315 317 323 327 325 321 317 312 307 304 306 304 299 305 312 314 308 303 301 303 303 301 312 310 311 281 267
208 185 239 216 182 206 187 165 176 178 168 166 181 184 208 265 293 300 303 311 317 319 318 315 307 301 298 300 300 294 296 299 298 296 300 298 308 304 286 293 308 293 267 268
128 160 185 250 246 289 240 232 213 191 186 183 196 219 246 275 287 299 304 305 309 314 314 312 301 297 294 294 291 291 290 291 291 292 292 291 285 283 291 269 259 284 270 265
188 176 184 212 193 187 139 203 206 209 210 205 217 241 251 263 283 296 295 298 305 312 312 305 298 293 290 288 286 284 283 280 276 279 281 286 292 285 286 285 301 259 259 276